FW3304 Weather Reports


time (UTC)temp
C
wind
direction
speed
KPH
gust
KPH
rain 1hr
cm
rain 24hr
cm
rain mn
cm
humidity
%
barometer
mb
20260504191546 25 198 16.1 40.2 0.00 0.00 0.00 48 1009.2
20260504190038 25 205 11.3 33.8 0.00 0.00 0.00 51 1009.5
20260504190015 25 222 14.5 35.4 0.00 0.00 0.00 50 1011.6
20260504184533 25 219 11.3 27.4 0.00 0.00 0.00 49 1009.7
20260504183032 25 198 17.7 33.8 0.00 0.00 0.00 47 1009.9
20260504183021 25 222 16.1 38.6 0.00 0.00 0.00 48 1012.0
20260504181531 25 184 17.7 33.8 0.00 0.00 0.00 49 1010.1
20260504180029 25 314 9.7 25.7 0.00 0.00 0.00 51 1010.1
20260504180015 25 218 14.5 38.6 0.00 0.00 0.00 51 1012.2
20260504174525 25 212 12.9 24.1 0.00 0.00 0.00 51 1010.2
20260504173023 25 184 12.9 29.0 0.00 0.00 0.00 53 1010.3
20260504173015 25 229 12.9 37.0 0.00 0.00 0.00 53 1012.6
20260504171530 24 214 9.7 25.7 0.00 0.00 0.00 54 1010.6
20260504081500 16 195 9.7 20.9 0.00 0.00 0.00 62 1011.8
20260504050024 14 187 1.6 3.2 0.00 0.00 0.00 63 1013.5
20260504050016 14 183 1.6 11.3 0.00 0.00 0.00 63 1015.2
20260504044525 14 189 1.6 6.4 0.00 0.00 0.00 62 1013.5
20260504043033 14 194 3.2 11.3 0.00 0.00 0.00 61 1013.6
20260504043016 14 193 3.2 12.9 0.00 0.00 0.00 61 1015.2
20260504041523 15 191 3.2 8.0 0.00 0.00 0.00 61 1013.7
20260504040025 15 207 4.8 11.3 0.00 0.00 0.00 61 1013.7
20260504040016 15 199 4.8 14.5 0.00 0.00 0.00 61 1015.4
20260504034520 15 208 4.8 11.3 0.00 0.00 0.00 61 1013.9
20260504033020 15 205 6.4 12.9 0.00 0.00 0.00 61 1013.9
20260504033016 15 194 6.4 14.5 0.00 0.00 0.00 61 1015.4
20260504031520 15 194 4.8 14.5 0.00 0.00 0.00 61 1014.0
20260504030019 15 196 4.8 11.3 0.00 0.00 0.00 61 1013.9
20260504030015 15 189 3.2 11.3 0.00 0.00 0.00 61 1015.4
20260504024519 15 176 4.8 8.0 0.00 0.00 0.00 60 1014.0
20260504023021 15 199 3.2 8.0 0.00 0.00 0.00 59 1014.2
20260504021517 15 185 3.2 9.7 0.00 0.00 0.00 58 1014.1
20260504020055 15 202 1.6 8.0 0.00 0.00 0.00 58 1015.5
20260504020017 15 200 3.2 8.0 0.00 0.00 0.00 58 1014.1
20260504014516 15 203 3.2 6.4 0.00 0.00 0.00 57 1014.0
20260504013019 16 209 0.0 4.8 0.00 0.00 0.00 56 1014.0
20260504013015 16 208 0.0 9.7 0.00 0.00 0.00 56 1015.5
20260504011521 16 210 0.0 4.8 0.00 0.00 0.00 53 1014.0
20260504010015 17 211 0.0 6.4 0.00 0.00 0.00 51 1014.0
20260504004514 17 192 3.2 9.7 0.00 0.00 0.00 50 1013.7
20260504003015 18 203 6.4 20.9 0.00 0.00 0.00 49 1015.3
20260504003012 18 203 6.4 12.9 0.00 0.00 0.00 49 1013.9
20260504001512 18 204 6.4 12.9 0.00 0.00 0.00 48 1014.0
20260504000015 19 205 8.0 20.9 0.00 0.00 0.00 47 1015.4
20260504000011 19 198 6.4 12.9 0.00 0.00 0.00 47 1014.0
20260503234508 19 181 9.7 20.9 0.00 0.00 0.00 46 1014.2
20260503233015 20 204 8.0 22.5 0.00 0.00 0.00 46 1016.1
20260503233006 20 211 8.0 17.7 0.00 0.00 0.00 46 1014.5
20260503231505 20 183 9.7 19.3 0.00 0.00 0.00 45 1014.6
20260503230020 20 205 8.0 29.0 0.00 0.00 0.00 43 1016.2
20260503230003 20 210 11.3 16.1 0.00 0.00 0.00 43 1014.8
20260503224503 20 196 11.3 25.7 0.00 0.00 0.00 44 1014.9
20260503223059 20 224 9.7 27.4 0.00 0.00 0.00 44 1015.0
20260503223015 20 208 8.0 29.0 0.00 0.00 0.00 44 1016.5
20260503221558 20 223 9.7 19.3 0.00 0.00 0.00 44 1015.3
20260503220109 20 238 9.7 25.7 0.00 0.00 0.00 45 1015.4
20260503220056 20 217 9.7 27.4 0.00 0.00 0.00 44 1016.9
20260503214552 20 285 6.4 19.3 0.00 0.00 0.00 46 1015.8
20260503213053 20 269 9.7 20.9 0.00 0.00 0.00 44 1016.0
20260503213015 20 219 9.7 27.4 0.00 0.00 0.00 43 1017.5
20260503211547 20 181 9.7 27.4 0.00 0.00 0.00 46 1016.3
20260503210045 20 223 14.5 20.9 0.00 0.00 0.00 44 1016.6
20260503210015 20 213 9.7 27.4 0.00 0.00 0.00 44 1018.0
20260503204542 20 262 14.5 27.4 0.00 0.00 0.00 43 1016.9
20260503203044 20 235 12.9 25.7 0.00 0.00 0.00 45 1017.0
20260503203015 20 226 9.7 27.4 0.00 0.00 0.00 46 1018.4
20260503201538 19 210 8.0 19.3 0.00 0.00 0.00 46 1017.5
20260503200033 19 250 12.9 25.7 0.00 0.00 0.00 45 1017.9
20260503200015 19 227 9.7 27.4 0.00 0.00 0.00 45 1019.2
20260503194532 19 225 11.3 22.5 0.00 0.00 0.00 46 1018.2
20260503193040 18 224 9.7 25.7 0.00 0.00 0.00 47 1019.8
20260503193026 18 261 11.3 22.5 0.00 0.00 0.00 47 1018.5